Flag for Chile Weather past 2 weeks in Puerto Williams, Chile

36 °F

Passing clouds.

Feels Like: 33 °F
Forecast: N/A
Wind: 3 mph from North

Location: Ushuaia Aerodrome

Current Time: Oct 6, 2015 at 8:32:23 PM

Latest Report: Oct 6, 2015 at 8:00 PM

Visibility: N/A

Pressure: 29.80 "Hg

Humidity: 93%

Dew point: 34 °F

Location of Puerto WilliamsLocation

Historic Weather in Puerto Williams — Graph


Puerto Williams temperature yesterday

Maximum temperature yesterday: 54 °F (at 6:00 PM)
Minimum temperature yesterday: 43 °F (at 5:00 AM)
Average temperature yesterday: 46 °F

Past Weeks' High & Low Weather Summary

High57 °F (Oct 4, 2:00 PM)100% (Oct 5, 6:00 AM)30.18 "Hg (Oct 5, 6:00 AM)
Low32 °F (Sep 26, 8:00 AM)19% (Oct 2, 2:00 PM)29.33 "Hg (Oct 5, 3:00 AM)
Average42 °F66%29.75 "Hg
* Reported Sep 21 7:00 PM — Oct 6 7:00 PM, Puerto Williams, Weather by CustomWeather, © 2015

Note: Actual official high and low records may vary slightly from our data, if they occured in-between our weather recording intervals... More about our weather records


Puerto Williams weather history for previous 24 hours

Time TempWeatherWind HumidityBarometerVisibility
7:00 PM
Tue, Oct 6
36 °FPassing clouds.6 mph93%29.80 "HgN/A
6:00 PM36 °FScattered showers. Mostly cloudy.6 mph93%29.80 "HgN/A
5:00 PM36 °FLight rain. Mostly cloudy.7 mph93%29.77 "Hg4 mi
4:00 PM41 °FLight rain. Mostly cloudy.14 mph81%29.74 "Hg5 mi
3:00 PM41 °FScattered showers. More clouds than sun.7 mph76%29.74 "Hg5 mi
2:00 PM39 °FScattered showers. More clouds than sun.14 mph93%29.71 "Hg5 mi
1:00 PM39 °FDrizzle. Partly sunny.5 mph87%29.71 "HgN/A
12:00 PM39 °FDrizzle. Partly sunny.9 mph87%29.71 "HgN/A
11:00 AM39 °FScattered showers. Partly sunny.8 mph81%29.71 "HgN/A
10:00 AM41 °FScattered showers. Partly sunny.8 mph70%29.68 "HgN/A
9:00 AM39 °FPartly sunny.7 mph75%29.68 "HgN/A
8:00 AM39 °FScattered clouds.5 mph75%29.68 "HgN/A
3:00 AM41 °FClear.16 mph70%29.56 "Hg10 mi
1:00 AM43 °FClear.25 mph66%29.50 "Hg10 mi
12:00 AM46 °FClear.6 mph46%29.47 "Hg10 mi
11:00 PM
Mon, Oct 5
46 °FPassing clouds.3 mph46%29.47 "HgN/A
10:00 PM46 °FPassing clouds.6 mph46%29.47 "HgN/A
9:00 PM48 °FPassing clouds.9 mph46%29.45 "HgN/A
8:00 PM48 °FPassing clouds.No wind66%29.45 "HgN/A
Weather by CustomWeather, © 2015

See weather overviewHow to use our weather pages